Oxford, NC

6:39 PM EST on November 18, 2019 (GMT -0500)
Henderson-Oxford

Weather History for KHNZ - June, 2019

Change the Weather History Date:

Monday, June 10, 2019

  Actual Average (KTDF) Record (KTDF)
Temperature  
Mean Temperature 76 °F -  
Max Temperature 84 °F 83 °F 98 °F (2002)
Min Temperature 68 °F 59 °F 43 °F (1988)
Cooling Degree Days 11    
Growing Degree Days 26 (Base 50)    
Moisture  
Dew Point 69 °F    
Average Humidity 83    
Maximum Humidity 98    
Minimum Humidity 58    
Precipitation  
Precipitation 0.15 in - - ()
Sea Level Pressure  
Sea Level Pressure 29.95 in    
Wind  
Wind Speed 5 mph (SSW)    
Max Wind Speed 10 mph    
Max Gust Speed 16 mph    
Visibility 9 miles    
Events Rain    
Averages and records for this station are not official NWS values.
T = Trace of Precipitation, MM = Missing Value Source: NWS Daily Summary

Daily Weather History Graph

Daily Weather History Graph

Search for Another Location

Airport or City:

Astronomy

Jun. 10, 2019 Rise Set
Actual Time 5:55 AM EDT 8:31 PM EDT
Civil Twilight 5:25 AM EDT 9:01 PM EDT
Nautical Twilight 4:48 AM EDT 9:39 PM EDT
Astronomical Twilight 4:06 AM EDT 10:21 PM EDT
Moon 1:34 PM EDT (6/10) 1:51 AM EDT (6/10)
Length of Visible Light 15h 36m
Length of Day
14h 35m
First Quarter, 55% of the Moon is Illuminated
Jun 10
First Quarter
Jun 17
Full
Jun 25
Last Quarter
Jul 2
New
Jul 9
First Quarter

Hourly Weather History & Observations

Time (EDT) Temp. Heat Index Dew Point Humidity Pressure Visibility Wind Dir Wind Speed Gust Speed Precip Events Conditions
12:00 AM 69.8 °F - 68.9 °F 97% 30.01 in 10.0 mi SSE 3.5 mph - 0.01 in   Overcast
12:20 AM 69.4 °F - 68.5 °F 97% 30.00 in 10.0 mi SE 3.5 mph - 0.01 in   Overcast
12:40 AM 69.4 °F - 68.5 °F 97% 30.00 in 10.0 mi SE 5.8 mph - 0.01 in   Overcast
1:00 AM 69.3 °F - 68.4 °F 97% 30.00 in 10.0 mi SSE 4.6 mph - N/A   Overcast
1:20 AM 69.3 °F - 68.2 °F 96% 29.99 in 10.0 mi SE 5.8 mph - N/A   Overcast
1:40 AM 68.9 °F - 68.0 °F 97% 29.99 in 10.0 mi SSE 4.6 mph - N/A   Overcast
2:00 AM 68.9 °F - 68.0 °F 97% 29.99 in 10.0 mi SSE 6.9 mph - N/A   Overcast
2:20 AM 68.9 °F - 68.0 °F 97% 29.99 in 10.0 mi SSE 3.5 mph - N/A   Overcast
2:40 AM 68.9 °F - 68.0 °F 97% 29.98 in 10.0 mi SSE 4.6 mph - N/A   Overcast
3:00 AM 68.9 °F - 68.0 °F 97% 29.98 in 5.0 mi Calm Calm - N/A Rain Light Rain
3:20 AM 68.9 °F - 68.2 °F 98% 29.99 in 7.0 mi South 5.8 mph - N/A   Overcast
3:40 AM 68.9 °F - 68.2 °F 98% 29.98 in 7.0 mi South 3.5 mph - N/A Rain Light Rain
4:00 AM 68.9 °F - 68.2 °F 98% 29.98 in 4.0 mi South 5.8 mph - N/A Rain Light Rain
4:20 AM 68.9 °F - 68.2 °F 98% 29.98 in 7.0 mi South 4.6 mph - 0.01 in   Overcast
4:40 AM 69.1 °F - 68.4 °F 98% 29.98 in 7.0 mi South 5.8 mph - 0.01 in   Overcast
5:00 AM 69.1 °F - 68.4 °F 98% 29.98 in 7.0 mi South 3.5 mph - N/A   Overcast
5:20 AM 69.1 °F - 68.4 °F 98% 29.98 in 7.0 mi South 6.9 mph - N/A   Overcast
5:40 AM 69.1 °F - 68.4 °F 98% 29.98 in 7.0 mi South 3.5 mph - N/A   Overcast
6:00 AM 69.1 °F - 68.4 °F 98% 29.98 in 7.0 mi Calm Calm - N/A   Overcast
6:20 AM 69.1 °F - 68.4 °F 98% 29.98 in 5.0 mi SSW 3.5 mph - N/A   Overcast
6:40 AM 69.3 °F - 68.5 °F 98% 29.99 in 3.0 mi South 3.5 mph - N/A   Overcast
7:00 AM 69.4 °F - 68.9 °F 98% 29.99 in 5.0 mi South 4.6 mph - N/A   Overcast
7:20 AM 69.8 °F - 68.9 °F 97% 30.00 in 7.0 mi South 5.8 mph - N/A   Overcast
7:40 AM 70.2 °F - 69.3 °F 97% 30.00 in 7.0 mi South 3.5 mph - N/A   Overcast
8:00 AM 70.7 °F - 69.3 °F 95% 30.00 in 7.0 mi South 5.8 mph - N/A   Overcast
8:20 AM 70.7 °F - 69.1 °F 95% 30.00 in 10.0 mi SW 3.5 mph - N/A   Overcast
8:40 AM 71.2 °F - 69.3 °F 93% 30.01 in 10.0 mi SSW 8.1 mph - N/A   Overcast
9:00 AM 71.8 °F - 69.3 °F 92% 30.01 in 10.0 mi SSW 5.8 mph - N/A   Overcast
9:20 AM 72.5 °F - 69.1 °F 89% 30.00 in 10.0 mi SSW 4.6 mph - N/A   Mostly Cloudy
9:40 AM 73.6 °F - 69.4 °F 87% 30.00 in 10.0 mi SW 5.8 mph - N/A   Overcast
10:00 AM 73.8 °F - 69.1 °F 85% 30.00 in 10.0 mi SSW 6.9 mph - N/A   Overcast
10:20 AM 75.0 °F - 69.1 °F 82% 30.00 in 10.0 mi SW 9.2 mph - N/A   Mostly Cloudy
10:40 AM 75.2 °F - 68.9 °F 81% 30.00 in 10.0 mi SW 6.9 mph - N/A   Scattered Clouds
11:00 AM 76.8 °F - 69.8 °F 79% 29.99 in 10.0 mi SSW 9.2 mph - N/A   Clear
11:20 AM 77.7 °F - 69.3 °F 75% 29.99 in 10.0 mi WSW 6.9 mph - N/A   Scattered Clouds
11:40 AM 78.8 °F - 69.4 °F 73% 29.99 in 10.0 mi SW 6.9 mph - N/A   Scattered Clouds
12:00 PM 77.9 °F - 68.7 °F 73% 29.99 in 10.0 mi WSW 9.2 mph - N/A   Scattered Clouds
12:20 PM 79.3 °F - 68.7 °F 70% 29.98 in 10.0 mi WSW 6.9 mph - N/A   Scattered Clouds
12:40 PM 79.7 °F - 69.8 °F 72% 29.97 in 10.0 mi WSW 5.8 mph - N/A   Scattered Clouds
1:00 PM 80.4 °F 83.0 °F 67.8 °F 65% 29.97 in 10.0 mi SSW 8.1 mph 16.1 mph N/A   Scattered Clouds
1:20 PM 79.0 °F - 68.9 °F 71% 29.96 in 10.0 mi West 5.8 mph - N/A   Scattered Clouds
1:40 PM 80.8 °F 83.9 °F 69.4 °F 68% 29.95 in 10.0 mi SW 6.9 mph - N/A   Scattered Clouds
2:00 PM 80.8 °F 83.8 °F 68.7 °F 67% 29.94 in 10.0 mi SSW 8.1 mph - N/A   Scattered Clouds
2:20 PM 82.0 °F 85.5 °F 69.3 °F 65% 29.93 in 10.0 mi SSW 5.8 mph - N/A   Scattered Clouds
2:40 PM 82.9 °F 85.8 °F 68.0 °F 60% 29.92 in 10.0 mi SSW 5.8 mph - N/A   Scattered Clouds
3:00 PM 84.0 °F 87.3 °F 68.2 °F 59% 29.92 in 10.0 mi SW 6.9 mph - N/A   Scattered Clouds
3:20 PM 82.8 °F 85.1 °F 66.4 °F 58% 29.91 in 10.0 mi SW 5.8 mph - N/A   Scattered Clouds
3:40 PM 81.5 °F 83.9 °F 66.9 °F 61% 29.90 in 10.0 mi SW 4.6 mph - N/A   Scattered Clouds
4:00 PM 82.2 °F 85.5 °F 68.7 °F 64% 29.90 in 10.0 mi SW 5.8 mph - N/A   Scattered Clouds
4:20 PM 81.9 °F 84.4 °F 67.3 °F 61% 29.89 in 10.0 mi South 8.1 mph - N/A   Scattered Clouds
4:40 PM 81.5 °F 83.7 °F 66.6 °F 60% 29.89 in 10.0 mi SSW 9.2 mph - N/A   Scattered Clouds
5:00 PM 81.5 °F 83.9 °F 66.9 °F 61% 29.89 in 10.0 mi SW 9.2 mph - N/A   Clear
5:20 PM 82.9 °F 85.8 °F 67.6 °F 60% 29.89 in 10.0 mi WSW 6.9 mph - N/A   Clear
5:40 PM 81.5 °F 84.2 °F 67.8 °F 63% 29.89 in 10.0 mi SSW 6.9 mph - N/A   Scattered Clouds
6:00 PM 81.3 °F 84.0 °F 67.6 °F 63% 29.88 in 10.0 mi SW 5.8 mph - N/A   Scattered Clouds
6:20 PM 82.8 °F 85.8 °F 68.2 °F 61% 29.88 in 10.0 mi SSW 5.8 mph - N/A   Scattered Clouds
6:40 PM 80.2 °F 82.6 °F 67.3 °F 64% 29.88 in 10.0 mi SSW 8.1 mph - N/A   Clear
7:00 PM 81.3 °F 83.6 °F 66.9 °F 61% 29.87 in 10.0 mi SW 8.1 mph - N/A   Clear
7:20 PM 78.1 °F - 69.8 °F 76% 29.88 in 10.0 mi South 6.9 mph - N/A   Scattered Clouds
7:40 PM 77.0 °F - 69.6 °F 78% 29.88 in 10.0 mi South 6.9 mph - N/A   Clear
8:00 PM 75.7 °F - 69.1 °F 80% 29.89 in 10.0 mi South 4.6 mph - N/A   Clear
8:20 PM 75.0 °F - 69.3 °F 82% 29.89 in 10.0 mi South 4.6 mph - N/A   Clear
8:40 PM 74.1 °F - 69.1 °F 84% 29.89 in 10.0 mi South 8.1 mph - N/A   Clear
9:00 PM 73.8 °F - 69.3 °F 86% 29.89 in 10.0 mi South 8.1 mph - N/A   Scattered Clouds
9:20 PM 73.8 °F - 69.8 °F 87% 29.89 in 10.0 mi South 10.4 mph - N/A   Scattered Clouds
9:40 PM 73.6 °F - 70.0 °F 88% 29.89 in 10.0 mi South 9.2 mph - N/A   Scattered Clouds
10:00 PM 73.6 °F - 69.6 °F 87% 29.90 in 10.0 mi SSW 10.4 mph - N/A   Scattered Clouds
10:20 PM 72.5 °F - 70.0 °F 92% 29.94 in 3.0 mi West 9.2 mph - 0.04 in Rain Heavy Rain
10:25 PM 71.2 °F - 68.7 °F 92% 29.95 in 2.5 mi West 6.9 mph - 0.14 in Rain Heavy Rain